contact:dominique.lefevre@mio.osupytheas.fr, maurice.libes@osupytheas.fr, didier.mallarino@osupytheas.fr
Project:EMSO http://www.emso-fr.org/EMSO-France
Depth: 2436.0 m
Title:EMSO Ligure Ouest : Data MII capteur MICROCAT
DateTime_Computer,Latitude,Longitude,Temperature,Conductivity,Pressure,DateTime_Instrument
DateTime_Computer,Latitude,Longitude,degC,S m-1,dbar,DateTime_Instrument
2023-10-21T00:00:45Z,42.805,6.029,13.3034,4.60099,2470.81,2023-10-21T02:03:10Z
2023-10-21T00:03:48Z,42.805,6.029,13.3031,4.60099,2470.787,2023-10-21T02:06:13Z
2023-10-21T00:06:52Z,42.805,6.029,13.3031,4.60102,2470.81,2023-10-21T02:09:17Z
2023-10-21T00:09:55Z,42.805,6.029,13.3031,4.60099,2470.787,2023-10-21T02:12:20Z
2023-10-21T00:12:58Z,42.805,6.029,13.3029,4.60099,2470.81,2023-10-21T02:15:23Z
2023-10-21T00:16:01Z,42.805,6.029,13.3035,4.60099,2470.777,2023-10-21T02:18:26Z
2023-10-21T00:19:04Z,42.805,6.029,13.3034,4.60100,2470.824,2023-10-21T02:21:29Z
2023-10-21T00:22:07Z,42.805,6.029,13.3031,4.60099,2470.8,2023-10-21T02:24:32Z
2023-10-21T00:25:10Z,42.805,6.029,13.3034,4.60099,2470.763,2023-10-21T02:27:35Z
2023-10-21T00:28:13Z,42.805,6.029,13.3035,4.60101,2470.787,2023-10-21T02:30:38Z
2023-10-21T00:31:16Z,42.805,6.029,13.3029,4.60102,2470.787,2023-10-21T02:33:41Z
2023-10-21T00:34:19Z,42.805,6.029,13.3029,4.60099,2470.787,2023-10-21T02:36:44Z
2023-10-21T00:37:22Z,42.805,6.029,13.3031,4.60099,2470.763,2023-10-21T02:39:47Z
2023-10-21T00:40:25Z,42.805,6.029,13.3031,4.60100,2470.81,2023-10-21T02:42:50Z
2023-10-21T00:43:28Z,42.805,6.029,13.3030,4.60099,2470.787,2023-10-21T02:45:54Z
2023-10-21T00:46:32Z,42.805,6.029,13.3031,4.60101,2470.787,2023-10-21T02:48:57Z
2023-10-21T00:49:35Z,42.805,6.029,13.3032,4.60099,2470.787,2023-10-21T02:52:00Z
2023-10-21T00:52:38Z,42.805,6.029,13.3030,4.60117,2470.8,2023-10-21T02:55:03Z
2023-10-21T00:55:41Z,42.805,6.029,13.3031,4.60101,2470.763,2023-10-21T02:58:06Z
2023-10-21T00:58:44Z,42.805,6.029,13.3031,4.60099,2470.763,2023-10-21T03:01:09Z
2023-10-21T01:01:47Z,42.805,6.029,13.3033,4.60098,2470.787,2023-10-21T03:04:12Z
2023-10-21T01:04:50Z,42.805,6.029,13.3034,4.60099,2470.777,2023-10-21T03:07:15Z
2023-10-21T01:07:53Z,42.805,6.029,13.3034,4.60099,2470.787,2023-10-21T03:10:18Z
2023-10-21T01:10:56Z,42.805,6.029,13.3033,4.60100,2470.777,2023-10-21T03:13:21Z
2023-10-21T01:13:59Z,42.805,6.029,13.3034,4.60099,2470.763,2023-10-21T03:16:24Z
2023-10-21T01:17:02Z,42.805,6.029,13.3031,4.60098,2470.754,2023-10-21T03:19:27Z
2023-10-21T01:20:05Z,42.805,6.029,13.3034,4.60101,2470.74,2023-10-21T03:22:30Z
2023-10-21T01:23:08Z,42.805,6.029,13.3035,4.60100,2470.763,2023-10-21T03:25:34Z
2023-10-21T01:26:12Z,42.805,6.029,13.3031,4.60100,2470.777,2023-10-21T03:28:37Z
2023-10-21T01:29:15Z,42.805,6.029,13.3034,4.60099,2470.777,2023-10-21T03:31:40Z
2023-10-21T01:32:18Z,42.805,6.029,13.3034,4.60099,2470.763,2023-10-21T03:34:43Z
2023-10-21T01:35:21Z,42.805,6.029,13.3034,4.60101,2470.763,2023-10-21T03:37:46Z
2023-10-21T01:38:24Z,42.805,6.029,13.3036,4.60100,2470.74,2023-10-21T03:40:49Z
2023-10-21T01:41:27Z,42.805,6.029,13.3033,4.60099,2470.763,2023-10-21T03:43:52Z
2023-10-21T01:44:30Z,42.805,6.029,13.3035,4.60102,2470.763,2023-10-21T03:46:55Z
2023-10-21T01:47:33Z,42.805,6.029,13.3031,4.60102,2470.74,2023-10-21T03:49:58Z
2023-10-21T01:50:36Z,42.805,6.029,13.3031,4.60112,2470.763,2023-10-21T03:53:01Z
2023-10-21T01:53:39Z,42.805,6.029,13.3035,4.60115,2470.777,2023-10-21T03:56:04Z
2023-10-21T01:56:42Z,42.805,6.029,13.3034,4.60104,2470.74,2023-10-21T03:59:07Z
2023-10-21T01:59:45Z,42.805,6.029,13.3034,4.60101,2470.74,2023-10-21T04:02:11Z
2023-10-21T02:02:49Z,42.805,6.029,13.3030,4.60103,2470.74,2023-10-21T04:05:14Z
2023-10-21T02:05:52Z,42.805,6.029,13.3032,4.60101,2470.726,2023-10-21T04:08:17Z
2023-10-21T02:08:55Z,42.805,6.029,13.3031,4.60102,2470.763,2023-10-21T04:11:20Z
2023-10-21T02:11:58Z,42.805,6.029,13.3032,4.60099,2470.74,2023-10-21T04:14:23Z
2023-10-21T02:15:01Z,42.805,6.029,13.3031,4.60104,2470.74,2023-10-21T04:17:26Z
2023-10-21T02:18:04Z,42.805,6.029,13.3036,4.60099,2470.777,2023-10-21T04:20:29Z
2023-10-21T02:21:07Z,42.805,6.029,13.3030,4.60099,2470.763,2023-10-21T04:23:32Z
2023-10-21T02:24:10Z,42.805,6.029,13.3034,4.60101,2470.777,2023-10-21T04:26:35Z
2023-10-21T02:27:13Z,42.805,6.029,13.3029,4.60101,2470.763,2023-10-21T04:29:38Z
2023-10-21T02:30:16Z,42.805,6.029,13.3034,4.60100,2470.74,2023-10-21T04:32:41Z
2023-10-21T02:33:19Z,42.805,6.029,13.3032,4.60101,2470.74,2023-10-21T04:35:44Z
2023-10-21T02:36:22Z,42.805,6.029,13.3036,4.60103,2470.74,2023-10-21T04:38:48Z
2023-10-21T02:39:26Z,42.805,6.029,13.3033,4.60102,2470.754,2023-10-21T04:41:51Z
2023-10-21T02:42:29Z,42.805,6.029,13.3033,4.60105,2470.777,2023-10-21T04:44:54Z
2023-10-21T02:45:32Z,42.805,6.029,13.3034,4.60102,2470.763,2023-10-21T04:47:57Z
2023-10-21T02:48:35Z,42.805,6.029,13.3034,4.60104,2470.763,2023-10-21T04:51:00Z
2023-10-21T02:51:38Z,42.805,6.029,13.3036,4.60102,2470.787,2023-10-21T04:54:03Z
2023-10-21T02:54:41Z,42.805,6.029,13.3036,4.60106,2470.74,2023-10-21T04:57:06Z
2023-10-21T02:57:44Z,42.805,6.029,13.3035,4.60104,2470.777,2023-10-21T05:00:09Z
2023-10-21T03:00:47Z,42.805,6.029,13.3031,4.60104,2470.763,2023-10-21T05:03:12Z
2023-10-21T03:03:50Z,42.805,6.029,13.3036,4.60103,2470.777,2023-10-21T05:06:15Z
2023-10-21T03:06:53Z,42.805,6.029,13.3031,4.60102,2470.763,2023-10-21T05:09:18Z
2023-10-21T03:09:56Z,42.805,6.029,13.3030,4.60104,2470.754,2023-10-21T05:12:21Z
2023-10-21T03:12:59Z,42.805,6.029,13.3032,4.60099,2470.717,2023-10-21T05:15:25Z
2023-10-21T03:16:03Z,42.805,6.029,13.3034,4.60103,2470.74,2023-10-21T05:18:28Z
2023-10-21T03:19:06Z,42.805,6.029,13.3035,4.60102,2470.763,2023-10-21T05:21:31Z
2023-10-21T03:22:09Z,42.805,6.029,13.3031,4.60112,2470.717,2023-10-21T05:24:34Z
2023-10-21T03:25:12Z,42.805,6.029,13.3034,4.60102,2470.777,2023-10-21T05:27:37Z
2023-10-21T03:28:15Z,42.805,6.029,13.3034,4.60102,2470.74,2023-10-21T05:30:40Z
2023-10-21T03:31:18Z,42.805,6.029,13.3033,4.60101,2470.754,2023-10-21T05:33:43Z
2023-10-21T03:34:21Z,42.805,6.029,13.3033,4.60101,2470.73,2023-10-21T05:36:46Z
2023-10-21T03:37:24Z,42.805,6.029,13.3034,4.60101,2470.73,2023-10-21T05:39:49Z
2023-10-21T03:40:27Z,42.805,6.029,13.3033,4.60102,2470.74,2023-10-21T05:42:52Z
2023-10-21T03:43:30Z,42.805,6.029,13.3040,4.60104,2470.74,2023-10-21T05:45:55Z
2023-10-21T03:46:33Z,42.805,6.029,13.3031,4.60109,2470.754,2023-10-21T05:48:58Z
2023-10-21T03:49:36Z,42.805,6.029,13.3036,4.60104,2470.73,2023-10-21T05:52:01Z
2023-10-21T03:52:40Z,42.805,6.029,13.3036,4.60111,2470.754,2023-10-21T05:55:05Z
2023-10-21T03:55:43Z,42.805,6.029,13.3032,4.60117,2470.74,2023-10-21T05:58:08Z
2023-10-21T03:58:46Z,42.805,6.029,13.3032,4.60109,2470.74,2023-10-21T06:01:11Z
2023-10-21T04:01:49Z,42.805,6.029,13.3032,4.60104,2470.74,2023-10-21T06:04:14Z
2023-10-21T04:04:52Z,42.805,6.029,13.3036,4.60102,2470.754,2023-10-21T06:07:17Z
2023-10-21T04:07:55Z,42.805,6.029,13.3034,4.60099,2470.74,2023-10-21T06:10:20Z
2023-10-21T04:10:58Z,42.805,6.029,13.3034,4.60100,2470.717,2023-10-21T06:13:23Z
2023-10-21T04:14:01Z,42.805,6.029,13.3035,4.60102,2470.717,2023-10-21T06:16:26Z
2023-10-21T04:17:04Z,42.805,6.029,13.3038,4.60102,2470.763,2023-10-21T06:19:29Z
2023-10-21T04:20:07Z,42.805,6.029,13.3034,4.60105,2470.75,2023-10-21T06:22:32Z
2023-10-21T04:23:10Z,42.805,6.029,13.3035,4.60110,2470.73,2023-10-21T06:25:35Z
2023-10-21T04:26:13Z,42.805,6.029,13.3033,4.60102,2470.74,2023-10-21T06:28:38Z
2023-10-21T04:29:17Z,42.805,6.029,13.3033,4.60100,2470.754,2023-10-21T06:31:42Z
2023-10-21T04:32:20Z,42.805,6.029,13.3032,4.60104,2470.717,2023-10-21T06:34:45Z
2023-10-21T04:35:23Z,42.805,6.029,13.3036,4.60104,2470.717,2023-10-21T06:37:48Z
2023-10-21T04:38:26Z,42.805,6.029,13.3035,4.60107,2470.717,2023-10-21T06:40:51Z
2023-10-21T04:41:29Z,42.805,6.029,13.3039,4.60104,2470.717,2023-10-21T06:43:54Z
2023-10-21T04:44:32Z,42.805,6.029,13.3032,4.60112,2470.73,2023-10-21T06:46:57Z
2023-10-21T04:47:35Z,42.805,6.029,13.3037,4.60113,2470.74,2023-10-21T06:50:00Z
2023-10-21T04:50:38Z,42.805,6.029,13.3031,4.60108,2470.707,2023-10-21T06:53:03Z
2023-10-21T04:53:41Z,42.805,6.029,13.3033,4.60109,2470.73,2023-10-21T06:56:07Z
2023-10-21T04:56:45Z,42.805,6.029,13.3033,4.60105,2470.693,2023-10-21T06:59:10Z
2023-10-21T04:59:48Z,42.805,6.029,13.3036,4.60140,2470.717,2023-10-21T07:02:13Z
2023-10-21T05:02:51Z,42.805,6.029,13.3034,4.60124,2470.73,2023-10-21T07:05:16Z
2023-10-21T05:05:54Z,42.805,6.029,13.3029,4.60125,2470.73,2023-10-21T07:08:19Z
2023-10-21T05:08:57Z,42.805,6.029,13.3031,4.60117,2470.754,2023-10-21T07:11:22Z
2023-10-21T05:12:00Z,42.805,6.029,13.3031,4.60119,2470.74,2023-10-21T07:14:25Z
2023-10-21T05:15:03Z,42.805,6.029,13.3026,4.60116,2470.74,2023-10-21T07:17:28Z
2023-10-21T05:18:06Z,42.805,6.029,13.3031,4.60108,2470.777,2023-10-21T07:20:31Z
2023-10-21T05:21:09Z,42.805,6.029,13.3031,4.60106,2470.74,2023-10-21T07:23:34Z
2023-10-21T05:24:12Z,42.805,6.029,13.3031,4.60108,2470.73,2023-10-21T07:26:37Z
2023-10-21T05:27:15Z,42.805,6.029,13.3031,4.60105,2470.717,2023-10-21T07:29:40Z
2023-10-21T05:30:18Z,42.805,6.029,13.3033,4.60104,2470.754,2023-10-21T07:32:44Z
2023-10-21T05:33:22Z,42.805,6.029,13.3031,4.60107,2470.717,2023-10-21T07:35:47Z
2023-10-21T05:36:25Z,42.805,6.029,13.3031,4.60104,2470.777,2023-10-21T07:38:50Z
2023-10-21T05:39:28Z,42.805,6.029,13.3029,4.60107,2470.73,2023-10-21T07:41:53Z
2023-10-21T05:42:31Z,42.805,6.029,13.3032,4.60114,2470.717,2023-10-21T07:44:56Z
2023-10-21T05:45:34Z,42.805,6.029,13.3034,4.60108,2470.74,2023-10-21T07:47:59Z
2023-10-21T05:48:37Z,42.805,6.029,13.3034,4.60111,2470.717,2023-10-21T07:51:02Z
2023-10-21T05:51:40Z,42.805,6.029,13.3032,4.60117,2470.74,2023-10-21T07:54:05Z
2023-10-21T05:54:43Z,42.805,6.029,13.3032,4.60112,2470.74,2023-10-21T07:57:08Z
2023-10-21T05:57:46Z,42.805,6.029,13.3031,4.60112,2470.74,2023-10-21T08:00:11Z
2023-10-21T06:00:49Z,42.805,6.029,13.3030,4.60105,2470.74,2023-10-21T08:03:14Z
2023-10-21T06:03:52Z,42.805,6.029,13.3031,4.60110,2470.763,2023-10-21T08:06:17Z
2023-10-21T06:06:56Z,42.805,6.029,13.3029,4.60112,2470.73,2023-10-21T08:09:21Z
2023-10-21T06:09:59Z,42.805,6.029,13.3032,4.60114,2470.777,2023-10-21T08:12:24Z
2023-10-21T06:13:02Z,42.805,6.029,13.3034,4.60108,2470.754,2023-10-21T08:15:27Z
2023-10-21T06:16:05Z,42.805,6.029,13.3036,4.60114,2470.74,2023-10-21T08:18:30Z
2023-10-21T06:19:08Z,42.805,6.029,13.3036,4.60104,2470.646,2023-10-21T08:21:33Z
2023-10-21T06:22:11Z,42.805,6.029,13.3036,4.60104,2470.754,2023-10-21T08:24:36Z
2023-10-21T06:25:14Z,42.805,6.029,13.3029,4.60106,2470.763,2023-10-21T08:27:39Z
2023-10-21T06:28:17Z,42.805,6.029,13.3034,4.60106,2470.777,2023-10-21T08:30:42Z
2023-10-21T06:31:19Z,42.805,6.029,13.3029,4.60107,2470.754,2023-10-21T08:33:44Z
2023-10-21T06:34:22Z,42.805,6.029,13.3033,4.60107,2470.74,2023-10-21T08:36:47Z
2023-10-21T06:37:25Z,42.805,6.029,13.3034,4.60105,2470.763,2023-10-21T08:39:50Z
2023-10-21T06:40:28Z,42.805,6.029,13.3034,4.60104,2470.777,2023-10-21T08:42:53Z
2023-10-21T06:43:31Z,42.805,6.029,13.3032,4.60106,2470.787,2023-10-21T08:45:56Z
2023-10-21T06:46:34Z,42.805,6.029,13.3036,4.60105,2470.763,2023-10-21T08:49:00Z
2023-10-21T06:49:38Z,42.805,6.029,13.3037,4.60105,2470.763,2023-10-21T08:52:03Z
2023-10-21T06:52:41Z,42.805,6.029,13.3034,4.60104,2470.717,2023-10-21T08:55:06Z
2023-10-21T06:55:44Z,42.805,6.029,13.3034,4.60104,2470.787,2023-10-21T08:58:09Z
2023-10-21T06:58:47Z,42.805,6.029,13.3029,4.60107,2470.763,2023-10-21T09:01:12Z
2023-10-21T07:01:50Z,42.805,6.029,13.3031,4.60104,2470.777,2023-10-21T09:04:15Z
2023-10-21T07:04:53Z,42.805,6.029,13.3033,4.60104,2470.763,2023-10-21T09:07:18Z
2023-10-21T07:07:56Z,42.805,6.029,13.3029,4.60104,2470.763,2023-10-21T09:10:21Z
2023-10-21T07:10:59Z,42.805,6.029,13.3031,4.60103,2470.763,2023-10-21T09:13:24Z
2023-10-21T07:14:02Z,42.805,6.029,13.3034,4.60103,2470.777,2023-10-21T09:16:27Z
2023-10-21T07:17:05Z,42.805,6.029,13.3029,4.60103,2470.763,2023-10-21T09:19:30Z
2023-10-21T07:20:08Z,42.805,6.029,13.3031,4.60104,2470.74,2023-10-21T09:22:33Z
2023-10-21T07:23:11Z,42.805,6.029,13.3030,4.60103,2470.777,2023-10-21T09:25:37Z
2023-10-21T07:26:15Z,42.805,6.029,13.3032,4.60102,2470.754,2023-10-21T09:28:40Z
2023-10-21T07:29:18Z,42.805,6.029,13.3034,4.60104,2470.787,2023-10-21T09:31:43Z
2023-10-21T07:32:21Z,42.805,6.029,13.3033,4.60102,2470.8,2023-10-21T09:34:46Z
2023-10-21T07:35:24Z,42.805,6.029,13.3034,4.60103,2470.787,2023-10-21T09:37:49Z
2023-10-21T07:38:27Z,42.805,6.029,13.3029,4.60104,2470.787,2023-10-21T09:40:52Z
2023-10-21T07:41:30Z,42.805,6.029,13.3033,4.60105,2470.81,2023-10-21T09:43:55Z
2023-10-21T07:44:33Z,42.805,6.029,13.3036,4.60105,2470.833,2023-10-21T09:46:58Z
2023-10-21T07:47:36Z,42.805,6.029,13.3031,4.60104,2470.777,2023-10-21T09:50:01Z
2023-10-21T07:50:39Z,42.805,6.029,13.3031,4.60102,2470.763,2023-10-21T09:53:04Z
2023-10-21T07:53:42Z,42.805,6.029,13.3033,4.60102,2470.787,2023-10-21T09:56:07Z
2023-10-21T07:56:45Z,42.805,6.029,13.3031,4.60104,2470.787,2023-10-21T09:59:10Z
2023-10-21T07:59:48Z,42.805,6.029,13.3034,4.60104,2470.81,2023-10-21T10:02:14Z
2023-10-21T08:02:52Z,42.805,6.029,13.3033,4.60104,2470.81,2023-10-21T10:05:17Z
2023-10-21T08:05:55Z,42.805,6.029,13.3036,4.60103,2470.787,2023-10-21T10:08:20Z
2023-10-21T08:08:58Z,42.805,6.029,13.3034,4.60102,2470.81,2023-10-21T10:11:23Z
2023-10-21T08:12:01Z,42.805,6.029,13.3034,4.60103,2470.81,2023-10-21T10:14:26Z
2023-10-21T08:15:04Z,42.805,6.029,13.3036,4.60104,2470.81,2023-10-21T10:17:29Z
2023-10-21T08:18:07Z,42.805,6.029,13.3034,4.60105,2470.81,2023-10-21T10:20:32Z
2023-10-21T08:21:10Z,42.805,6.029,13.3036,4.60105,2470.833,2023-10-21T10:23:35Z
2023-10-21T08:24:13Z,42.805,6.029,13.3032,4.60105,2470.787,2023-10-21T10:26:38Z
2023-10-21T08:27:16Z,42.805,6.029,13.3030,4.60110,2470.833,2023-10-21T10:29:41Z
2023-10-21T08:30:18Z,42.805,6.029,13.3032,4.60102,2470.81,2023-10-21T10:32:43Z
2023-10-21T08:33:21Z,42.805,6.029,13.3032,4.60104,2470.787,2023-10-21T10:35:46Z
2023-10-21T08:36:24Z,42.805,6.029,13.3032,4.60103,2470.824,2023-10-21T10:38:49Z
2023-10-21T08:39:27Z,42.805,6.029,13.3030,4.60101,2470.81,2023-10-21T10:41:52Z
2023-10-21T08:42:31Z,42.805,6.029,13.3034,4.60104,2470.81,2023-10-21T10:44:56Z
2023-10-21T08:45:34Z,42.805,6.029,13.3033,4.60106,2470.81,2023-10-21T10:47:59Z
2023-10-21T08:48:37Z,42.805,6.029,13.3031,4.60104,2470.81,2023-10-21T10:51:02Z
2023-10-21T08:51:40Z,42.805,6.029,13.3036,4.60105,2470.833,2023-10-21T10:54:05Z
2023-10-21T08:54:43Z,42.805,6.029,13.3031,4.60110,2470.833,2023-10-21T10:57:08Z
2023-10-21T08:57:46Z,42.805,6.029,13.3035,4.60101,2470.833,2023-10-21T11:00:11Z
2023-10-21T09:00:49Z,42.805,6.029,13.3037,4.60104,2470.787,2023-10-21T11:03:14Z
2023-10-21T09:03:52Z,42.805,6.029,13.3033,4.60102,2470.824,2023-10-21T11:06:17Z
2023-10-21T09:06:55Z,42.805,6.029,13.3035,4.60103,2470.833,2023-10-21T11:09:20Z
2023-10-21T09:09:58Z,42.805,6.029,13.3031,4.60103,2470.833,2023-10-21T11:12:23Z
2023-10-21T09:13:01Z,42.805,6.029,13.3035,4.60101,2470.82,2023-10-21T11:15:26Z
2023-10-21T09:16:04Z,42.805,6.029,13.3031,4.60104,2470.81,2023-10-21T11:18:30Z
2023-10-21T09:19:08Z,42.805,6.029,13.3033,4.60102,2470.847,2023-10-21T11:21:33Z
2023-10-21T09:22:11Z,42.805,6.029,13.3032,4.60105,2470.833,2023-10-21T11:24:36Z
2023-10-21T09:25:14Z,42.805,6.029,13.3034,4.60102,2470.81,2023-10-21T11:27:39Z
2023-10-21T09:28:17Z,42.805,6.029,13.3034,4.60105,2470.871,2023-10-21T11:30:42Z
2023-10-21T09:31:20Z,42.805,6.029,13.3036,4.60103,2470.847,2023-10-21T11:33:45Z
2023-10-21T09:34:23Z,42.805,6.029,13.3032,4.60104,2470.857,2023-10-21T11:36:48Z
2023-10-21T09:37:26Z,42.805,6.029,13.3035,4.60107,2470.857,2023-10-21T11:39:51Z
2023-10-21T09:40:29Z,42.805,6.029,13.3035,4.60102,2470.857,2023-10-21T11:42:54Z
2023-10-21T09:43:32Z,42.805,6.029,13.3032,4.60102,2470.894,2023-10-21T11:45:57Z
2023-10-21T09:46:35Z,42.805,6.029,13.3031,4.60102,2470.88,2023-10-21T11:49:00Z
2023-10-21T09:49:38Z,42.805,6.029,13.3031,4.60104,2470.88,2023-10-21T11:52:03Z
2023-10-21T09:52:42Z,42.805,6.029,13.3034,4.60102,2470.847,2023-10-21T11:55:07Z
2023-10-21T09:55:45Z,42.805,6.029,13.3030,4.60102,2470.857,2023-10-21T11:58:10Z
2023-10-21T09:58:48Z,42.805,6.029,13.3032,4.60104,2470.88,2023-10-21T12:01:13Z
2023-10-21T10:01:51Z,42.805,6.029,13.3031,4.60104,2470.871,2023-10-21T12:04:16Z
2023-10-21T10:04:54Z,42.805,6.029,13.3032,4.60101,2470.88,2023-10-21T12:07:19Z
2023-10-21T10:07:57Z,42.805,6.029,13.3030,4.60101,2470.88,2023-10-21T12:10:22Z
2023-10-21T10:11:00Z,42.805,6.029,13.3037,4.60102,2470.871,2023-10-21T12:13:25Z
2023-10-21T10:14:03Z,42.805,6.029,13.3031,4.60104,2470.88,2023-10-21T12:16:28Z
2023-10-21T10:17:06Z,42.805,6.029,13.3036,4.60105,2470.88,2023-10-21T12:19:31Z
2023-10-21T10:20:09Z,42.805,6.029,13.3034,4.60105,2470.904,2023-10-21T12:22:34Z
2023-10-21T10:23:12Z,42.805,6.029,13.3033,4.60104,2470.871,2023-10-21T12:25:37Z
2023-10-21T10:26:15Z,42.805,6.029,13.3031,4.60102,2470.894,2023-10-21T12:28:41Z
2023-10-21T10:29:19Z,42.805,6.029,13.3029,4.60099,2470.88,2023-10-21T12:31:44Z
2023-10-21T10:32:22Z,42.805,6.029,13.3032,4.60102,2470.894,2023-10-21T12:34:47Z
2023-10-21T10:35:25Z,42.805,6.029,13.3031,4.60103,2470.894,2023-10-21T12:37:50Z
2023-10-21T10:38:28Z,42.805,6.029,13.3030,4.60104,2470.857,2023-10-21T12:40:53Z
2023-10-21T10:41:31Z,42.805,6.029,13.3032,4.60099,2470.833,2023-10-21T12:43:56Z
2023-10-21T10:44:34Z,42.805,6.029,13.3032,4.60100,2470.894,2023-10-21T12:46:59Z
2023-10-21T10:47:37Z,42.805,6.029,13.3035,4.60109,2470.894,2023-10-21T12:50:02Z
2023-10-21T10:50:40Z,42.805,6.029,13.3035,4.60104,2470.857,2023-10-21T12:53:05Z
2023-10-21T10:53:43Z,42.805,6.029,13.3030,4.60099,2470.88,2023-10-21T12:56:08Z
2023-10-21T10:56:46Z,42.805,6.029,13.3034,4.60103,2470.88,2023-10-21T12:59:11Z
2023-10-21T10:59:49Z,42.805,6.029,13.3031,4.60103,2470.904,2023-10-21T13:02:14Z
2023-10-21T11:02:53Z,42.805,6.029,13.3030,4.60103,2470.88,2023-10-21T13:05:18Z
2023-10-21T11:05:56Z,42.805,6.029,13.3033,4.60104,2470.88,2023-10-21T13:08:21Z
2023-10-21T11:08:59Z,42.805,6.029,13.3036,4.60102,2470.904,2023-10-21T13:11:24Z
2023-10-21T11:12:02Z,42.805,6.029,13.3031,4.60110,2470.88,2023-10-21T13:14:27Z
2023-10-21T11:15:05Z,42.805,6.029,13.3033,4.60103,2470.88,2023-10-21T13:17:30Z
2023-10-21T11:18:08Z,42.805,6.029,13.3034,4.60104,2470.866,2023-10-21T13:20:33Z
2023-10-21T11:21:11Z,42.805,6.029,13.3036,4.60102,2470.927,2023-10-21T13:23:36Z
2023-10-21T11:24:14Z,42.805,6.029,13.3029,4.60102,2470.88,2023-10-21T13:26:39Z
2023-10-21T11:27:17Z,42.805,6.029,13.3034,4.60102,2470.88,2023-10-21T13:29:42Z
2023-10-21T11:30:20Z,42.805,6.029,13.3034,4.60102,2470.857,2023-10-21T13:32:45Z
2023-10-21T11:33:23Z,42.805,6.029,13.3031,4.60104,2470.88,2023-10-21T13:35:48Z
2023-10-21T11:36:26Z,42.805,6.029,13.3033,4.60108,2470.88,2023-10-21T13:38:52Z
2023-10-21T11:39:30Z,42.805,6.029,13.3032,4.60102,2470.88,2023-10-21T13:41:55Z
2023-10-21T11:42:33Z,42.805,6.029,13.3032,4.60104,2470.857,2023-10-21T13:44:58Z
2023-10-21T11:45:36Z,42.805,6.029,13.3032,4.60102,2470.904,2023-10-21T13:48:01Z
2023-10-21T11:48:39Z,42.805,6.029,13.3032,4.60101,2470.88,2023-10-21T13:51:04Z
2023-10-21T11:51:42Z,42.805,6.029,13.3032,4.60102,2470.847,2023-10-21T13:54:07Z
2023-10-21T11:54:45Z,42.805,6.029,13.3034,4.60102,2470.88,2023-10-21T13:57:10Z
2023-10-21T11:57:48Z,42.805,6.029,13.3037,4.60102,2470.871,2023-10-21T14:00:13Z
2023-10-21T12:00:51Z,42.805,6.029,13.3036,4.60102,2470.904,2023-10-21T14:03:16Z
2023-10-21T12:03:54Z,42.805,6.029,13.3036,4.60101,2470.833,2023-10-21T14:06:19Z
2023-10-21T12:06:57Z,42.805,6.029,13.3034,4.60102,2470.88,2023-10-21T14:09:22Z
2023-10-21T12:10:00Z,42.805,6.029,13.3029,4.60102,2470.857,2023-10-21T14:12:25Z
2023-10-21T12:13:03Z,42.805,6.029,13.3033,4.60101,2470.871,2023-10-21T14:15:29Z
2023-10-21T12:16:07Z,42.805,6.029,13.3029,4.60104,2470.857,2023-10-21T14:18:32Z
2023-10-21T12:19:10Z,42.805,6.029,13.3032,4.60099,2470.857,2023-10-21T14:21:35Z
2023-10-21T12:22:13Z,42.805,6.029,13.3034,4.60099,2470.88,2023-10-21T14:24:38Z
2023-10-21T12:25:16Z,42.805,6.029,13.3030,4.60102,2470.88,2023-10-21T14:27:41Z
2023-10-21T12:28:19Z,42.805,6.029,13.3031,4.60099,2470.904,2023-10-21T14:30:44Z
2023-10-21T12:31:22Z,42.805,6.029,13.3031,4.60099,2470.894,2023-10-21T14:33:47Z
2023-10-21T12:34:25Z,42.805,6.029,13.3027,4.60099,2470.88,2023-10-21T14:36:50Z
2023-10-21T12:37:28Z,42.805,6.029,13.3034,4.60102,2470.904,2023-10-21T14:39:53Z
2023-10-21T12:40:31Z,42.805,6.029,13.3033,4.60103,2470.894,2023-10-21T14:42:56Z
2023-10-21T12:43:34Z,42.805,6.029,13.3033,4.60102,2470.88,2023-10-21T14:45:59Z
2023-10-21T12:46:37Z,42.805,6.029,13.3032,4.60101,2470.88,2023-10-21T14:49:03Z
2023-10-21T12:49:41Z,42.805,6.029,13.3032,4.60102,2470.857,2023-10-21T14:52:06Z
2023-10-21T12:52:44Z,42.805,6.029,13.3031,4.60104,2470.88,2023-10-21T14:55:09Z
2023-10-21T12:55:47Z,42.805,6.029,13.3032,4.60103,2470.871,2023-10-21T14:58:12Z
2023-10-21T12:58:50Z,42.805,6.029,13.3036,4.60104,2470.88,2023-10-21T15:01:15Z
2023-10-21T13:01:53Z,42.805,6.029,13.3033,4.60107,2470.88,2023-10-21T15:04:18Z
2023-10-21T13:04:56Z,42.805,6.029,13.3035,4.60103,2470.88,2023-10-21T15:07:21Z
2023-10-21T13:07:59Z,42.805,6.029,13.3032,4.60102,2470.88,2023-10-21T15:10:24Z
2023-10-21T13:11:02Z,42.805,6.029,13.3036,4.60104,2470.857,2023-10-21T15:13:27Z
2023-10-21T13:14:05Z,42.805,6.029,13.3034,4.60104,2470.857,2023-10-21T15:16:30Z
2023-10-21T13:17:08Z,42.805,6.029,13.3032,4.60104,2470.871,2023-10-21T15:19:33Z
2023-10-21T13:20:11Z,42.805,6.029,13.3033,4.60099,2470.847,2023-10-21T15:22:36Z
2023-10-21T13:23:14Z,42.805,6.029,13.3035,4.60102,2470.857,2023-10-21T15:25:40Z
2023-10-21T13:26:18Z,42.805,6.029,13.3031,4.60104,2470.847,2023-10-21T15:28:43Z
2023-10-21T13:29:21Z,42.805,6.029,13.3035,4.60106,2470.88,2023-10-21T15:31:46Z
2023-10-21T13:32:24Z,42.805,6.029,13.3037,4.60101,2470.857,2023-10-21T15:34:49Z
2023-10-21T13:35:27Z,42.805,6.029,13.3031,4.60102,2470.857,2023-10-21T15:37:52Z
2023-10-21T13:38:30Z,42.805,6.029,13.3034,4.60104,2470.857,2023-10-21T15:40:55Z
2023-10-21T13:41:33Z,42.805,6.029,13.3029,4.60101,2470.88,2023-10-21T15:43:58Z
2023-10-21T13:44:36Z,42.805,6.029,13.3031,4.60104,2470.88,2023-10-21T15:47:01Z
2023-10-21T13:47:39Z,42.805,6.029,13.3030,4.60101,2470.857,2023-10-21T15:50:04Z
2023-10-21T13:50:42Z,42.805,6.029,13.3030,4.60102,2470.857,2023-10-21T15:53:07Z
2023-10-21T13:53:45Z,42.805,6.029,13.3032,4.60104,2470.894,2023-10-21T15:56:10Z
2023-10-21T13:56:48Z,42.805,6.029,13.3033,4.60104,2470.857,2023-10-21T15:59:13Z
2023-10-21T13:59:51Z,42.805,6.029,13.3034,4.60102,2470.857,2023-10-21T16:02:17Z
2023-10-21T14:02:55Z,42.805,6.029,13.3034,4.60104,2470.833,2023-10-21T16:05:20Z
2023-10-21T14:05:58Z,42.805,6.029,13.3034,4.60100,2470.857,2023-10-21T16:08:23Z
2023-10-21T14:09:01Z,42.805,6.029,13.3036,4.60102,2470.857,2023-10-21T16:11:26Z
2023-10-21T14:12:04Z,42.805,6.029,13.3039,4.60104,2470.847,2023-10-21T16:14:29Z
2023-10-21T14:15:07Z,42.805,6.029,13.3040,4.60103,2470.857,2023-10-21T16:17:32Z
2023-10-21T14:18:10Z,42.805,6.029,13.3034,4.60109,2470.857,2023-10-21T16:20:35Z
2023-10-21T14:21:13Z,42.805,6.029,13.3035,4.60102,2470.847,2023-10-21T16:23:38Z
2023-10-21T14:24:16Z,42.805,6.029,13.3034,4.60102,2470.88,2023-10-21T16:26:41Z
2023-10-21T14:27:19Z,42.805,6.029,13.3034,4.60105,2470.871,2023-10-21T16:29:44Z
2023-10-21T14:30:24Z,42.805,6.029,13.3039,4.60102,2470.833,2023-10-21T16:32:49Z
2023-10-21T14:33:27Z,42.805,6.029,13.3034,4.60107,2470.871,2023-10-21T16:35:52Z
2023-10-21T14:36:30Z,42.805,6.029,13.3036,4.60103,2470.833,2023-10-21T16:38:55Z
2023-10-21T14:39:33Z,42.805,6.029,13.3037,4.60103,2470.857,2023-10-21T16:41:58Z
2023-10-21T14:42:36Z,42.805,6.029,13.3039,4.60108,2470.871,2023-10-21T16:45:01Z
2023-10-21T14:45:39Z,42.805,6.029,13.3032,4.60105,2470.847,2023-10-21T16:48:04Z
2023-10-21T14:48:42Z,42.805,6.029,13.3031,4.60101,2470.847,2023-10-21T16:51:07Z
2023-10-21T14:51:45Z,42.805,6.029,13.3034,4.60101,2470.871,2023-10-21T16:54:11Z
2023-10-21T14:54:49Z,42.805,6.029,13.3031,4.60101,2470.833,2023-10-21T16:57:14Z
2023-10-21T14:57:52Z,42.805,6.029,13.3039,4.60110,2470.857,2023-10-21T17:00:17Z
2023-10-21T15:00:55Z,42.805,6.029,13.3036,4.60110,2470.847,2023-10-21T17:03:20Z